When you browse on this site, cookies collect data to enhance your experience and personalize the content and advertising you see.
Visit our Privacy Policy to learn more. By continuing to use the site, you agree to this use of cookies and data.
  • En España
  • Lista de países
  • Para 7 días
  • Temperatura del agua
  • Mapa Satelital
  • El tiempo en el mapa
  • Informadores
  • user-avatar
    Iniciar sesión

    Tiempo cada hora Makoterty

    Hoy, 23 Mayo, Jueves

    Tiempo Temperatura Precipitaciones Viento Presión Humedad
    00:00 +13°C° 0 mm 1 mps 737 mmHg 89%
    01:00 +11°C° 0 mm 0 mps 737 mmHg 89%
    02:00 +11°C° 0 mm 0 mps 737 mmHg 89%
    03:00 +11°C° 0 mm 0 mps 738 mmHg 89%
    04:00 +11°C° 0 mm 0 mps 738 mmHg 89%
    05:00 +12°C° 0 mm 1 mps 738 mmHg 89%
    06:00 +14°C° 0 mm 1 mps 738 mmHg 84%
    07:00 +15°C° 0 mm 1 mps 738 mmHg 79%
    08:00 +18°C° 0 mm 1 mps 738 mmHg 74%
    09:00 +20°C° 0.1 mm 1 mps 738 mmHg 71%
    10:00 +21°C° 0.1 mm 1 mps 738 mmHg 67%
    11:00 +20°C° 0.1 mm 0 mps 738 mmHg 63%
    12:00 +23°C° 0.3 mm 1 mps 738 mmHg 61%
    13:00 +23°C° 0.3 mm 1 mps 738 mmHg 60%
    14:00 +23°C° 0.3 mm 1 mps 738 mmHg 58%
    15:00 +23°C° 1.5 mm 1 mps 738 mmHg 61%
    16:00 +23°C° 1.5 mm 1 mps 738 mmHg 64%
    17:00 +20°C° 1.5 mm 0 mps 737 mmHg 68%
    18:00 +19°C° 0.8 mm 0 mps 737 mmHg 73%
    19:00 +19°C° 0.8 mm 1 mps 738 mmHg 78%
    20:00 +18°C° 0.8 mm 1 mps 738 mmHg 83%
    21:00 +18°C° 0 mm 1 mps 738 mmHg 84%
    22:00 +16°C° 0 mm 1 mps 738 mmHg 85%
    23:00 +16°C° 0 mm 1 mps 738 mmHg 86%

    Mañana, 24 Mayo, Viernes

    Tiempo Temperatura Precipitaciones Viento Presión Humedad
    00:00 +15°C° 0.2 mm 1 mps 738 mmHg 88%
    01:00 +15°C° 0.2 mm 1 mps 738 mmHg 89%
    02:00 +14°C° 0.2 mm 1 mps 738 mmHg 91%
    03:00 +14°C° 0.1 mm 1 mps 738 mmHg 91%
    04:00 +14°C° 0.1 mm 1 mps 738 mmHg 91%
    05:00 +14°C° 0.1 mm 1 mps 738 mmHg 91%
    06:00 +15°C° 0.3 mm 1 mps 738 mmHg 89%
    07:00 +16°C° 0.3 mm 1 mps 738 mmHg 87%
    08:00 +19°C° 0.3 mm 1 mps 739 mmHg 84%
    09:00 +20°C° 0.7 mm 1 mps 739 mmHg 80%
    10:00 +21°C° 0.7 mm 1 mps 739 mmHg 75%
    11:00 +22°C° 0.7 mm 1 mps 739 mmHg 70%
    12:00 +22°C° 2.3 mm 1 mps 739 mmHg 74%
    13:00 +21°C° 2.3 mm 1 mps 738 mmHg 77%
    14:00 +20°C° 2.3 mm 2 mps 738 mmHg 81%
    15:00 +19°C° 0.9 mm 2 mps 738 mmHg 83%
    16:00 +18°C° 0.9 mm 3 mps 738 mmHg 86%
    17:00 +18°C° 0.9 mm 3 mps 738 mmHg 88%
    18:00 +17°C° 0.3 mm 3 mps 738 mmHg 90%
    19:00 +17°C° 0.3 mm 3 mps 738 mmHg 91%
    20:00 +16°C° 0.3 mm 2 mps 738 mmHg 93%
    21:00 +16°C° 0.1 mm 2 mps 738 mmHg 93%
    22:00 +16°C° 0.1 mm 2 mps 738 mmHg 93%
    23:00 +16°C° 0.1 mm 1 mps 737 mmHg 93%

    Pasado mañana, 25 Mayo, Sábado

    Tiempo Temperatura Precipitaciones Viento Presión Humedad
    00:00 +15°C° 0 mm 2 mps 737 mmHg 94%
    01:00 +15°C° 0 mm 2 mps 737 mmHg 95%
    02:00 +14°C° 0 mm 2 mps 737 mmHg 95%
    03:00 +14°C° 0.1 mm 2 mps 737 mmHg 96%
    04:00 +14°C° 0.1 mm 2 mps 737 mmHg 97%
    05:00 +14°C° 0.1 mm 2 mps 737 mmHg 98%
    06:00 +14°C° 0.1 mm 3 mps 737 mmHg 97%
    07:00 +14°C° 0.1 mm 3 mps 737 mmHg 96%
    08:00 +16°C° 0.1 mm 3 mps 738 mmHg 95%
    09:00 +17°C° 0.1 mm 4 mps 738 mmHg 90%
    10:00 +17°C° 0.1 mm 5 mps 738 mmHg 86%
    11:00 +19°C° 0.1 mm 5 mps 738 mmHg 81%
    12:00 +20°C° 0.4 mm 5 mps 738 mmHg 77%
    13:00 +21°C° 0.4 mm 6 mps 738 mmHg 72%
    14:00 +21°C° 0.4 mm 6 mps 738 mmHg 68%
    15:00 +21°C° 0 mm 5 mps 738 mmHg 67%
    16:00 +21°C° 0 mm 5 mps 738 mmHg 66%
    17:00 +21°C° 0 mm 5 mps 737 mmHg 65%
    18:00 +19°C° 0 mm 4 mps 738 mmHg 71%
    19:00 +18°C° 0 mm 4 mps 738 mmHg 77%
    20:00 +16°C° 0 mm 3 mps 738 mmHg 83%
    21:00 +16°C° 0 mm 3 mps 738 mmHg 85%
    22:00 +14°C° 0 mm 3 mps 738 mmHg 86%
    23:00 +13°C° 0 mm 3 mps 738 mmHg 88%

    26 Mayo, Domingo

    Tiempo Temperatura Precipitaciones Viento Presión Humedad
    00:00 +13°C° 0 mm 3 mps 738 mmHg 90%
    01:00 +12°C° 0 mm 3 mps 738 mmHg 92%
    02:00 +12°C° 0 mm 3 mps 738 mmHg 94%
    03:00 +11°C° 0 mm 3 mps 738 mmHg 95%
    04:00 +11°C° 0 mm 3 mps 738 mmHg 95%
    05:00 +10°C° 0 mm 2 mps 738 mmHg 95%
    06:00 +12°C° 0 mm 3 mps 738 mmHg 90%
    07:00 +13°C° 0 mm 3 mps 739 mmHg 86%
    08:00 +14°C° 0 mm 3 mps 739 mmHg 81%
    09:00 +17°C° 0 mm 3 mps 739 mmHg 75%
    10:00 +18°C° 0 mm 4 mps 739 mmHg 69%
    11:00 +20°C° 0 mm 4 mps 738 mmHg 63%
    12:00 +20°C° 0.2 mm 5 mps 738 mmHg 64%
    13:00 +20°C° 0.2 mm 5 mps 738 mmHg 66%
    14:00 +21°C° 0.2 mm 6 mps 738 mmHg 68%
    15:00 +20°C° 0.6 mm 6 mps 738 mmHg 71%
    16:00 +19°C° 0.6 mm 6 mps 738 mmHg 74%
    17:00 +17°C° 0.6 mm 6 mps 738 mmHg 77%
    18:00 +15°C° 0 mm 5 mps 738 mmHg 79%
    19:00 +14°C° 0 mm 4 mps 738 mmHg 80%
    20:00 +12°C° 0 mm 4 mps 739 mmHg 81%
    21:00 +11°C° 0 mm 4 mps 739 mmHg 83%
    22:00 +10°C° 0 mm 3 mps 739 mmHg 84%
    23:00 +9°C° 0 mm 3 mps 740 mmHg 85%

    27 Mayo, Lunes

    Tiempo Temperatura Precipitaciones Viento Presión Humedad
    00:00 +9°C° 0 mm 3 mps 740 mmHg 88%
    01:00 +8°C° 0 mm 3 mps 740 mmHg 90%
    02:00 +8°C° 0 mm 3 mps 740 mmHg 92%
    03:00 +7°C° 0 mm 3 mps 741 mmHg 93%
    04:00 +7°C° 0 mm 3 mps 741 mmHg 93%
    05:00 +7°C° 0 mm 3 mps 741 mmHg 94%
    06:00 +8°C° 0 mm 3 mps 741 mmHg 87%
    07:00 +10°C° 0 mm 4 mps 742 mmHg 81%
    08:00 +12°C° 0 mm 4 mps 742 mmHg 74%
    09:00 +13°C° 0 mm 4 mps 742 mmHg 69%
    10:00 +14°C° 0 mm 4 mps 742 mmHg 64%
    11:00 +17°C° 0 mm 4 mps 742 mmHg 59%
    12:00 +17°C° 0 mm 4 mps 742 mmHg 57%
    13:00 +18°C° 0 mm 3 mps 742 mmHg 55%
    14:00 +19°C° 0 mm 3 mps 741 mmHg 54%
    15:00 +19°C° 0 mm 3 mps 741 mmHg 55%
    16:00 +20°C° 0 mm 3 mps 741 mmHg 57%
    17:00 +20°C° 0 mm 2 mps 741 mmHg 59%
    18:00 +19°C° 0 mm 2 mps 741 mmHg 65%
    19:00 +17°C° 0 mm 2 mps 741 mmHg 72%
    20:00 +16°C° 0 mm 2 mps 740 mmHg 79%
    21:00 +16°C° 0 mm 3 mps 740 mmHg 82%
    22:00 +14°C° 0 mm 3 mps 740 mmHg 86%
    23:00 +14°C° 0 mm 3 mps 740 mmHg 90%

    28 Mayo, Martes

    Tiempo Temperatura Precipitaciones Viento Presión Humedad
    00:00 +14°C° 0.1 mm 3 mps 739 mmHg 89%
    01:00 +14°C° 0.1 mm 4 mps 739 mmHg 89%
    02:00 +15°C° 0.1 mm 4 mps 738 mmHg 88%
    03:00 +15°C° 0.7 mm 4 mps 738 mmHg 90%
    04:00 +15°C° 0.7 mm 4 mps 738 mmHg 93%
    05:00 +15°C° 0.7 mm 4 mps 737 mmHg 96%
    06:00 +15°C° 4.5 mm 4 mps 737 mmHg 96%
    07:00 +15°C° 4.5 mm 4 mps 736 mmHg 96%
    08:00 +15°C° 4.5 mm 4 mps 736 mmHg 97%
    09:00 +17°C° 0.6 mm 5 mps 736 mmHg 91%
    10:00 +20°C° 0.6 mm 5 mps 736 mmHg 85%
    11:00 +22°C° 0.6 mm 5 mps 736 mmHg 79%
    12:00 +22°C° 0.6 mm 5 mps 736 mmHg 78%
    13:00 +23°C° 0.6 mm 5 mps 735 mmHg 76%
    14:00 +25°C° 0.6 mm 5 mps 735 mmHg 74%
    15:00 +23°C° 1.7 mm 4 mps 735 mmHg 78%
    16:00 +22°C° 1.7 mm 4 mps 735 mmHg 82%
    17:00 +21°C° 1.7 mm 3 mps 735 mmHg 87%
    18:00 +20°C° 0 mm 3 mps 735 mmHg 87%
    19:00 +20°C° 0 mm 2 mps 735 mmHg 87%
    20:00 +19°C° 0 mm 2 mps 735 mmHg 87%
    21:00 +19°C° 0 mm 2 mps 735 mmHg 87%
    22:00 +19°C° 0 mm 1 mps 735 mmHg 88%
    23:00 +19°C° 0 mm 1 mps 735 mmHg 88%
    Mostrar más